TimePDT,TemperatureF,Dew PointF,Humidity,Sea Level PressureIn,VisibilityMPH,Wind Direction,Wind SpeedMPH,Gust SpeedMPH,PrecipitationIn,Events,Conditions,WindDirDegrees,DateUTC
12:53 AM,55.0,21.0,27,30.16,10.0,Calm,Calm,-,N/A,,Clear,0,2012-10-06 07:53:00
1:53 AM,53.1,21.0,29,30.16,10.0,NNE,10.4,-,N/A,,Clear,20,2012-10-06 08:53:00
2:53 AM,54.0,21.0,28,30.16,10.0,NNW,6.9,-,N/A,,Clear,330,2012-10-06 09:53:00
3:53 AM,52.0,21.9,31,30.14,10.0,NNW,4.6,-,N/A,,Clear,330,2012-10-06 10:53:00
4:53 AM,50.0,23.0,35,30.14,10.0,NW,3.5,-,N/A,,Clear,320,2012-10-06 11:53:00
5:53 AM,48.0,23.0,37,30.14,10.0,North,4.6,-,N/A,,Clear,350,2012-10-06 12:53:00
7:53 AM,50.0,25.0,38,30.15,10.0,North,4.6,-,N/A,,Clear,360,2012-10-06 14:53:00
8:53 AM,57.0,25.0,29,30.15,10.0,North,5.8,-,N/A,,Clear,360,2012-10-06 15:53:00
9:53 AM,64.0,21.9,20,30.14,10.0,NNE,12.7,-,N/A,,Clear,30,2012-10-06 16:53:00
10:53 AM,69.1,21.0,16,30.13,10.0,NNE,11.5,17.3,N/A,,Clear,30,2012-10-06 17:53:00
11:53 AM,72.0,17.1,12,30.12,10.0,NE,18.4,24.2,N/A,,Clear,50,2012-10-06 18:53:00
12:53 PM,73.9,17.1,12,30.10,10.0,ENE,17.3,23.0,N/A,,Clear,60,2012-10-06 19:53:00
1:53 PM,75.9,14.0,10,30.08,10.0,ENE,16.1,24.2,N/A,,Clear,60,2012-10-06 20:53:00
2:53 PM,77.0,15.1,10,30.06,10.0,ENE,11.5,20.7,N/A,,Clear,70,2012-10-06 21:53:00
3:53 PM,77.0,14.0,9,30.05,10.0,NE,16.1,23.0,N/A,,Clear,50,2012-10-06 22:53:00
4:53 PM,75.0,17.1,11,30.04,10.0,NNE,13.8,-,N/A,,Clear,30,2012-10-06 23:53:00
5:53 PM,72.0,19.0,13,30.03,10.0,NNE,12.7,-,N/A,,Clear,20,2012-10-07 00:53:00
6:53 PM,66.0,17.1,15,30.03,10.0,NNE,9.2,-,N/A,,Clear,20,2012-10-07 01:53:00
7:53 PM,64.9,14.0,14,30.04,10.0,NNE,9.2,-,N/A,,Clear,30,2012-10-07 02:53:00
8:53 PM,62.1,12.9,15,30.04,10.0,NE,9.2,-,N/A,,Clear,40,2012-10-07 03:53:00
9:53 PM,61.0,16.0,17,30.04,10.0,NE,8.1,-,N/A,,Clear,40,2012-10-07 04:53:00
10:53 PM,60.1,17.1,19,30.03,10.0,NNE,9.2,-,N/A,,Clear,30,2012-10-07 05:53:00
11:53 PM,60.1,17.1,19,30.03,10.0,NNE,9.2,-,N/A,,Clear,30,2012-10-07 06:53:00